Location: Seattle
(47.6064°N, 122.3308°W)
Time: 00:56:41
(UTC-08:00)

Tiros 1 - Pass Details

Date: 26 November 2020
Orbit: 630 x 663 km, 48.4° (Epoch: 28 January)

Event Time Altitude Azimuth Distance (km) Brightness Sun altitude
Rises 22:29:55 0° 284° (WNW) 2,972 - -58.3°
Reaches altitude 10° 22:32:41 10° 270° (W) 2,052 - -58.6°
Maximum altitude 22:36:17 22° 220° (SW) 1,406 - -59.0°
Drops below altitude 10° 22:39:52 10° 169° (S) 2,026 - -59.4°
Sets 22:42:35 0° 154° (SSE) 2,925 - -59.6°
